Location: Augirein
(42.9320°N, 0.9181°E)
Time: 20:03:35
(UTC+00:00)

Cosmos 1766 Rocket - Pass Details

Date: 20 June 2021
Orbit: 604 x 634 km, 82.5° (Epoch: 02 August)

Event Time Altitude Azimuth Distance (km) Brightness Sun altitude
Exits shadow 02:59:09 16° 207° (SSW) 1,656 5.1 -11.6°
Maximum altitude 03:02:36 54° 281° (W) 773 3.9 -11.2°
Drops below altitude 10° 03:07:00 10° 359° (N) 2,026 6.9 -10.7°
Sets 03:09:19 0° 4° (N) 2,940 7.9 -10.4°
